Time,TemperatureF,DewpointF,PressureIn,WindDirection,WindDirectionDegrees,WindSpeedMPH,WindSpeedGustMPH,Humidity,HourlyPrecipIn,Conditions,Clouds,dailyrainin,SoftwareType,DateUTC
2013-01-02 00:03:00,40.0,40.0,29.94,NW,324,6.0,-999.0,100,-99.99,,,-99.99,,2013-01-02 05:03:00,
2013-01-02 00:12:00,40.0,40.0,29.94,NW,324,6.0,-999.0,100,-99.99,,,-99.99,,2013-01-02 05:12:00,
2013-01-02 00:22:00,39.0,39.0,29.94,NNW,339,7.0,-999.0,100,-99.99,,,-99.99,,2013-01-02 05:22:00,
2013-01-02 00:33:00,37.0,37.0,29.94,North,355,11.0,-999.0,100,-99.99,,,-99.99,,2013-01-02 05:33:00,
2013-01-02 00:42:00,37.0,37.0,29.94,North,355,11.0,-999.0,100,-99.99,,,-99.99,,2013-01-02 05:42:00,
2013-01-02 00:53:00,36.0,36.0,29.93,North,5,13.0,-999.0,100,-99.99,,,-99.99,,2013-01-02 05:53:00,
2013-01-02 01:02:00,34.0,34.0,29.94,NNE,17,14.0,-999.0,100,-99.99,,,-99.99,,2013-01-02 06:02:00,
2013-01-02 01:12:00,34.0,34.0,29.94,NNE,17,14.0,-999.0,100,-99.99,,,-99.99,,2013-01-02 06:12:00,
2013-01-02 01:22:00,33.0,33.0,29.93,North,9,15.0,-999.0,100,-99.99,,,-99.99,,2013-01-02 06:22:00,
2013-01-02 01:32:00,32.0,32.0,29.94,North,9,16.0,-999.0,100,-99.99,,,-99.99,,2013-01-02 06:32:00,
2013-01-02 01:42:00,32.0,32.0,29.94,North,9,16.0,-999.0,100,-99.99,,,-99.99,,2013-01-02 06:42:00,
2013-01-02 01:53:00,32.0,32.0,29.92,NNE,17,15.0,-999.0,100,-99.99,,,-99.99,,2013-01-02 06:53:00,
2013-01-02 02:02:00,32.0,32.0,29.93,North,11,14.0,-999.0,100,-99.99,,,-99.99,,2013-01-02 07:02:00,
2013-01-02 02:12:00,32.0,32.0,29.93,North,11,14.0,-999.0,100,-99.99,,,-99.99,,2013-01-02 07:12:00,
2013-01-02 02:22:00,32.0,32.0,29.94,North,5,11.0,-999.0,100,-99.99,,,-99.99,,2013-01-02 07:22:00,
2013-01-02 02:32:00,32.0,32.0,29.95,NNE,15,15.0,-999.0,100,-99.99,,,-99.99,,2013-01-02 07:32:00,
2013-01-02 02:42:00,32.0,32.0,29.95,NNE,15,15.0,-999.0,100,-99.99,,,-99.99,,2013-01-02 07:42:00,
2013-01-02 02:52:00,32.0,32.0,29.96,North,11,10.0,-999.0,100,-99.99,,,-99.99,,2013-01-02 07:52:00,
2013-01-02 03:02:00,35.0,35.0,29.96,North,11,6.0,-999.0,100,-99.99,,,-99.99,,2013-01-02 08:02:00,
2013-01-02 03:12:00,35.0,35.0,29.96,North,11,6.0,-999.0,100,-99.99,,,-99.99,,2013-01-02 08:12:00,
2013-01-02 03:22:00,34.0,34.0,29.96,North,11,0.0,-999.0,100,-99.99,,,-99.99,,2013-01-02 08:22:00,
2013-01-02 03:32:00,33.0,33.0,29.96,North,11,3.0,-999.0,100,-99.99,,,-99.99,,2013-01-02 08:32:00,
2013-01-02 03:42:00,33.0,33.0,29.96,North,11,3.0,-999.0,100,-99.99,,,-99.99,,2013-01-02 08:42:00,
2013-01-02 03:53:00,33.0,33.0,29.96,North,11,4.0,-999.0,100,-99.99,,,-99.99,,2013-01-02 08:53:00,
2013-01-02 04:02:00,32.0,32.0,29.96,North,11,5.0,-999.0,100,-99.99,,,-99.99,,2013-01-02 09:02:00,
2013-01-02 04:12:00,32.0,32.0,29.96,North,11,5.0,-999.0,100,-99.99,,,-99.99,,2013-01-02 09:12:00,
2013-01-02 04:22:00,32.0,32.0,29.95,North,11,7.0,-999.0,100,-99.99,,,-99.99,,2013-01-02 09:22:00,
2013-01-02 04:32:00,32.0,32.0,29.95,North,11,7.0,-999.0,100,-99.99,,,-99.99,,2013-01-02 09:32:00,
2013-01-02 04:43:00,32.0,32.0,29.95,North,11,7.0,-999.0,100,-99.99,,,-99.99,,2013-01-02 09:43:00,
2013-01-02 04:53:00,31.0,31.0,29.95,North,11,8.0,-999.0,100,-99.99,,,-99.99,,2013-01-02 09:53:00,
2013-01-02 05:02:00,31.0,31.0,29.95,North,11,9.0,-999.0,100,-99.99,,,-99.99,,2013-01-02 10:02:00,
2013-01-02 05:12:00,31.0,31.0,29.95,North,11,9.0,-999.0,100,-99.99,,,-99.99,,2013-01-02 10:12:00,
2013-01-02 05:22:00,31.0,31.0,29.95,North,11,9.0,-999.0,100,-99.99,,,-99.99,,2013-01-02 10:22:00,
2013-01-02 05:32:00,30.0,30.0,29.96,NNE,15,11.0,-999.0,100,-99.99,,,-99.99,,2013-01-02 10:32:00,
2013-01-02 05:42:00,30.0,30.0,29.96,NNE,15,11.0,-999.0,100,-99.99,,,-99.99,,2013-01-02 10:42:00,
2013-01-02 05:52:00,30.0,30.0,29.96,NNE,15,13.0,-999.0,100,-99.99,,,-99.99,,2013-01-02 10:52:00,
2013-01-02 06:02:00,30.0,30.0,29.97,NNE,18,14.0,-999.0,100,-99.99,,,-99.99,,2013-01-02 11:02:00,
2013-01-02 06:12:00,30.0,30.0,29.97,NNE,18,14.0,-999.0,100,-99.99,,,-99.99,,2013-01-02 11:12:00,
2013-01-02 06:22:00,30.0,30.0,29.97,NNE,19,12.0,-999.0,100,-99.99,,,-99.99,,2013-01-02 11:22:00,
2013-01-02 06:32:00,29.0,29.0,29.98,NNE,19,11.0,-999.0,100,-99.99,,,-99.99,,2013-01-02 11:32:00,
2013-01-02 06:42:00,29.0,29.0,29.98,NNE,19,11.0,-999.0,100,-99.99,,,-99.99,,2013-01-02 11:42:00,
2013-01-02 06:53:00,29.0,29.0,29.99,NNE,19,9.0,-999.0,100,-99.99,,,-99.99,,2013-01-02 11:53:00,
2013-01-02 07:03:00,29.0,29.0,29.99,NNE,19,9.0,-999.0,100,-99.99,,,-99.99,,2013-01-02 12:03:00,
2013-01-02 07:12:00,29.0,29.0,29.99,NNE,19,9.0,-999.0,100,-99.99,,,-99.99,,2013-01-02 12:12:00,
2013-01-02 07:22:00,29.0,29.0,30.00,NNE,19,10.0,-999.0,100,-99.99,,,-99.99,,2013-01-02 12:22:00,
2013-01-02 07:33:00,29.0,29.0,30.00,NNE,19,10.0,-999.0,100,-99.99,,,-99.99,,2013-01-02 12:33:00,
2013-01-02 07:42:00,29.0,29.0,30.00,NNE,19,10.0,-999.0,100,-99.99,,,-99.99,,2013-01-02 12:42:00,
2013-01-02 07:53:00,28.0,28.0,30.01,NNE,19,10.0,-999.0,100,-99.99,,,-99.99,,2013-01-02 12:53:00,
2013-01-02 08:02:00,28.0,28.0,30.01,NNE,19,9.0,-999.0,100,-99.99,,,-99.99,,2013-01-02 13:02:00,
2013-01-02 08:12:00,28.0,28.0,30.01,NNE,19,9.0,-999.0,100,-99.99,,,-99.99,,2013-01-02 13:12:00,
2013-01-02 08:22:00,28.0,28.0,30.01,NNE,19,9.0,-999.0,100,-99.99,,,-99.99,,2013-01-02 13:22:00,
2013-01-02 08:32:00,28.0,28.0,30.02,NNE,19,11.0,-999.0,100,-99.99,,,-99.99,,2013-01-02 13:32:00,
2013-01-02 08:43:00,28.0,28.0,30.02,NNE,19,11.0,-999.0,100,-99.99,,,-99.99,,2013-01-02 13:43:00,
2013-01-02 08:52:00,28.0,28.0,30.02,NNE,19,8.0,-999.0,100,-99.99,,,-99.99,,2013-01-02 13:52:00,
2013-01-02 09:02:00,28.0,28.0,30.01,NNE,19,8.0,-999.0,100,-99.99,,,-99.99,,2013-01-02 14:02:00,
2013-01-02 09:12:00,28.0,28.0,30.01,NNE,19,8.0,-999.0,100,-99.99,,,-99.99,,2013-01-02 14:12:00,
2013-01-02 09:22:00,28.0,28.0,30.03,NNE,19,8.0,-999.0,100,-99.99,,,-99.99,,2013-01-02 14:22:00,
2013-01-02 09:33:00,28.0,28.0,30.02,NNE,19,8.0,-999.0,100,-99.99,,,-99.99,,2013-01-02 14:33:00,
2013-01-02 09:43:00,28.0,28.0,30.02,NNE,19,8.0,-999.0,100,-99.99,,,-99.99,,2013-01-02 14:43:00,
2013-01-02 09:53:00,28.0,28.0,30.05,NNE,19,8.0,-999.0,100,-99.99,,,-99.99,,2013-01-02 14:53:00,
2013-01-02 10:03:00,28.0,28.0,30.04,NNE,19,8.0,-999.0,100,-99.99,,,-99.99,,2013-01-02 15:03:00,
2013-01-02 10:12:00,28.0,28.0,30.04,NNE,19,8.0,-999.0,100,-99.99,,,-99.99,,2013-01-02 15:12:00,
2013-01-02 10:23:00,28.0,28.0,30.03,NNE,19,8.0,-999.0,100,-99.99,,,-99.99,,2013-01-02 15:23:00,
2013-01-02 10:33:00,28.0,28.0,30.04,NNE,19,7.0,-999.0,100,-99.99,,,-99.99,,2013-01-02 15:33:00,
2013-01-02 10:43:00,28.0,28.0,30.04,NNE,19,7.0,-999.0,100,-99.99,,,-99.99,,2013-01-02 15:43:00,
2013-01-02 10:53:00,28.0,28.0,30.05,NNE,19,5.0,-999.0,100,-99.99,,,-99.99,,2013-01-02 15:53:00,
2013-01-02 11:03:00,28.0,28.0,30.03,NNE,19,5.0,-999.0,100,-99.99,,,-99.99,,2013-01-02 16:03:00,
2013-01-02 11:13:00,28.0,28.0,30.03,NNE,19,5.0,-999.0,100,-99.99,,,-99.99,,2013-01-02 16:13:00,
2013-01-02 11:22:00,28.0,28.0,30.02,NNE,19,6.0,-999.0,100,-99.99,,,-99.99,,2013-01-02 16:22:00,
2013-01-02 11:33:00,29.0,29.0,30.02,NNE,19,5.0,-999.0,100,-99.99,,,-99.99,,2013-01-02 16:33:00,
2013-01-02 11:43:00,29.0,29.0,30.02,NNE,19,5.0,-999.0,100,-99.99,,,-99.99,,2013-01-02 16:43:00,
2013-01-02 11:53:00,29.0,29.0,30.03,NNE,19,4.0,-999.0,100,-99.99,,,-99.99,,2013-01-02 16:53:00,
2013-01-02 12:03:00,29.0,29.0,30.03,NNE,19,4.0,-999.0,100,-99.99,,,-99.99,,2013-01-02 17:03:00,
2013-01-02 12:13:00,29.0,29.0,30.03,NNE,19,4.0,-999.0,100,-99.99,,,-99.99,,2013-01-02 17:13:00,
2013-01-02 12:23:00,29.0,29.0,30.03,NNE,19,2.0,-999.0,100,-99.99,,,-99.99,,2013-01-02 17:23:00,
2013-01-02 12:33:00,29.0,29.0,30.02,NNE,19,4.0,-999.0,100,-99.99,,,-99.99,,2013-01-02 17:33:00,
2013-01-02 12:43:00,29.0,29.0,30.02,NNE,19,4.0,-999.0,100,-99.99,,,-99.99,,2013-01-02 17:43:00,
2013-01-02 12:53:00,29.0,29.0,30.01,NNE,19,2.0,-999.0,100,-99.99,,,-99.99,,2013-01-02 17:53:00,
2013-01-02 13:03:00,29.0,29.0,30.01,NNE,19,0.0,-999.0,100,-99.99,,,-99.99,,2013-01-02 18:03:00,
2013-01-02 13:13:00,29.0,29.0,30.01,NNE,19,0.0,-999.0,100,-99.99,,,-99.99,,2013-01-02 18:13:00,
2013-01-02 13:23:00,29.0,29.0,30.01,NNE,19,0.0,-999.0,100,-99.99,,,-99.99,,2013-01-02 18:23:00,
2013-01-02 13:33:00,29.0,29.0,30.01,NNE,19,0.0,-999.0,100,-99.99,,,-99.99,,2013-01-02 18:33:00,
2013-01-02 13:43:00,29.0,29.0,30.01,NNE,19,0.0,-999.0,100,-99.99,,,-99.99,,2013-01-02 18:43:00,
2013-01-02 13:53:00,29.0,29.0,30.00,NNE,19,0.0,-999.0,100,-99.99,,,-99.99,,2013-01-02 18:53:00,
2013-01-02 14:03:00,29.0,29.0,29.99,NNE,19,0.0,-999.0,100,-99.99,,,-99.99,,2013-01-02 19:03:00,
2013-01-02 14:12:00,29.0,29.0,29.99,NNE,19,0.0,-999.0,100,-99.99,,,-99.99,,2013-01-02 19:12:00,
2013-01-02 14:23:00,29.0,29.0,30.00,NNE,19,0.0,-999.0,100,-99.99,,,-99.99,,2013-01-02 19:23:00,
2013-01-02 14:33:00,29.0,29.0,30.00,NNE,19,0.0,-999.0,100,-99.99,,,-99.99,,2013-01-02 19:33:00,
2013-01-02 14:43:00,29.0,29.0,30.00,NNE,19,0.0,-999.0,100,-99.99,,,-99.99,,2013-01-02 19:43:00,
2013-01-02 14:53:00,29.0,29.0,30.00,NNE,19,0.0,-999.0,100,-99.99,,,-99.99,,2013-01-02 19:53:00,
2013-01-02 15:03:00,29.0,29.0,30.00,NNE,19,0.0,-999.0,100,-99.99,,,-99.99,,2013-01-02 20:03:00,
2013-01-02 15:12:00,29.0,29.0,30.00,NNE,19,0.0,-999.0,100,-99.99,,,-99.99,,2013-01-02 20:12:00,
2013-01-02 15:23:00,29.0,29.0,30.01,NNE,19,0.0,-999.0,100,-99.99,,,-99.99,,2013-01-02 20:23:00,
2013-01-02 15:33:00,29.0,29.0,30.01,NNE,19,0.0,-999.0,100,-99.99,,,-99.99,,2013-01-02 20:33:00,
2013-01-02 15:42:00,29.0,29.0,30.01,NNE,19,0.0,-999.0,100,-99.99,,,-99.99,,2013-01-02 20:42:00,
2013-01-02 15:53:00,29.0,29.0,30.01,NNE,19,0.0,-999.0,100,-99.99,,,-99.99,,2013-01-02 20:53:00,
2013-01-02 16:03:00,29.0,29.0,30.02,NNE,19,0.0,-999.0,100,-99.99,,,-99.99,,2013-01-02 21:03:00,
2013-01-02 16:13:00,29.0,29.0,30.02,NNE,19,0.0,-999.0,100,-99.99,,,-99.99,,2013-01-02 21:13:00,
2013-01-02 16:22:00,29.0,29.0,30.02,NNE,19,0.0,-999.0,100,-99.99,,,-99.99,,2013-01-02 21:22:00,
2013-01-02 16:33:00,29.0,29.0,30.02,NNE,19,0.0,-999.0,100,-99.99,,,-99.99,,2013-01-02 21:33:00,
2013-01-02 16:43:00,29.0,29.0,30.02,NNE,19,0.0,-999.0,100,-99.99,,,-99.99,,2013-01-02 21:43:00,
2013-01-02 16:53:00,29.0,29.0,30.01,NNE,19,0.0,-999.0,100,-99.99,,,-99.99,,2013-01-02 21:53:00,
2013-01-02 17:03:00,29.0,29.0,30.02,NNE,19,0.0,-999.0,100,-99.99,,,-99.99,,2013-01-02 22:03:00,
2013-01-02 17:12:00,29.0,29.0,30.02,NNE,19,0.0,-999.0,100,-99.99,,,-99.99,,2013-01-02 22:12:00,
2013-01-02 17:22:00,29.0,29.0,30.02,NNE,19,0.0,-999.0,100,-99.99,,,-99.99,,2013-01-02 22:22:00,
2013-01-02 17:32:00,29.0,29.0,30.03,NNE,19,0.0,-999.0,100,-99.99,,,-99.99,,2013-01-02 22:32:00,
2013-01-02 17:42:00,29.0,29.0,30.03,NNE,19,0.0,-999.0,100,-99.99,,,-99.99,,2013-01-02 22:42:00,
2013-01-02 17:53:00,29.0,29.0,30.04,NNE,19,0.0,-999.0,100,-99.99,,,-99.99,,2013-01-02 22:53:00,
2013-01-02 18:03:00,29.0,29.0,30.04,NNE,19,0.0,-999.0,100,-99.99,,,-99.99,,2013-01-02 23:03:00,
2013-01-02 18:13:00,29.0,29.0,30.01,NNE,19,0.0,-999.0,100,-99.99,,,-99.99,,2013-01-02 23:13:00,
2013-01-02 18:23:00,29.0,29.0,30.01,NNE,19,0.0,-999.0,100,-99.99,,,-99.99,,2013-01-02 23:23:00,
2013-01-02 18:33:00,29.0,29.0,30.02,NNE,19,0.0,-999.0,100,-99.99,,,-99.99,,2013-01-02 23:33:00,
2013-01-02 18:42:00,29.0,29.0,30.02,NNE,19,0.0,-999.0,100,-99.99,,,-99.99,,2013-01-02 23:42:00,
2013-01-02 18:53:00,29.0,29.0,30.02,NNE,19,0.0,-999.0,100,-99.99,,,-99.99,,2013-01-02 23:53:00,
2013-01-02 19:02:00,28.0,28.0,30.01,NNE,19,0.0,-999.0,100,-99.99,,,-99.99,,2013-01-03 00:02:00,
2013-01-02 19:12:00,28.0,28.0,30.01,NNE,19,0.0,-999.0,100,-99.99,,,-99.99,,2013-01-03 00:12:00,
2013-01-02 19:22:00,28.0,28.0,30.02,NNE,19,0.0,-999.0,100,-99.99,,,-99.99,,2013-01-03 00:22:00,
2013-01-02 19:38:00,28.0,28.0,30.03,NNE,19,0.0,-999.0,100,-99.99,,,-99.99,,2013-01-03 00:38:00,
2013-01-02 19:53:00,28.0,28.0,30.03,NNE,19,0.0,-999.0,100,-99.99,,,-99.99,,2013-01-03 00:53:00,
2013-01-02 20:02:00,28.0,28.0,30.03,NNE,19,0.0,-999.0,100,-99.99,,,-99.99,,2013-01-03 01:02:00,
2013-01-02 20:12:00,28.0,28.0,30.03,NNE,19,0.0,-999.0,100,-99.99,,,-99.99,,2013-01-03 01:12:00,
2013-01-02 20:22:00,28.0,28.0,30.03,NNE,19,0.0,-999.0,100,-99.99,,,-99.99,,2013-01-03 01:22:00,
2013-01-02 20:32:00,28.0,28.0,30.03,NNE,19,0.0,-999.0,100,-99.99,,,-99.99,,2013-01-03 01:32:00,
2013-01-02 20:42:00,28.0,28.0,30.03,NNE,19,0.0,-999.0,100,-99.99,,,-99.99,,2013-01-03 01:42:00,
2013-01-02 20:53:00,28.0,28.0,30.03,NNE,19,0.0,-999.0,100,-99.99,,,-99.99,,2013-01-03 01:53:00,
2013-01-02 21:02:00,29.0,29.0,30.03,NNE,19,0.0,-999.0,100,-99.99,,,-99.99,,2013-01-03 02:02:00,
2013-01-02 21:12:00,29.0,29.0,30.03,NNE,19,0.0,-999.0,100,-99.99,,,-99.99,,2013-01-03 02:12:00,
2013-01-02 21:22:00,29.0,29.0,30.04,NNE,19,0.0,-999.0,100,-99.99,,,-99.99,,2013-01-03 02:22:00,
2013-01-02 21:33:00,29.0,29.0,30.05,NNE,19,0.0,-999.0,100,-99.99,,,-99.99,,2013-01-03 02:33:00,
2013-01-02 21:42:00,29.0,29.0,30.05,NNE,19,0.0,-999.0,100,-99.99,,,-99.99,,2013-01-03 02:42:00,
2013-01-02 21:52:00,29.0,29.0,30.05,NNE,19,0.0,-999.0,100,-99.99,,,-99.99,,2013-01-03 02:52:00,
2013-01-02 22:02:00,29.0,29.0,30.04,NNE,19,0.0,-999.0,100,-99.99,,,-99.99,,2013-01-03 03:02:00,
2013-01-02 22:12:00,29.0,29.0,30.05,NNE,19,0.0,-999.0,100,-99.99,,,-99.99,,2013-01-03 03:12:00,
2013-01-02 22:22:00,29.0,29.0,30.05,NNE,19,0.0,-999.0,100,-99.99,,,-99.99,,2013-01-03 03:22:00,
2013-01-02 22:46:00,29.0,29.0,30.03,NNE,19,0.0,-999.0,100,-99.99,,,-99.99,,2013-01-03 03:46:00,
2013-01-02 22:53:00,29.0,29.0,30.05,NNE,19,0.0,-999.0,100,-99.99,,,-99.99,,2013-01-03 03:53:00,
2013-01-02 23:02:00,29.0,29.0,30.04,NNE,19,0.0,-999.0,100,-99.99,,,-99.99,,2013-01-03 04:02:00,
2013-01-02 23:12:00,29.0,29.0,30.04,NNE,19,0.0,-999.0,100,-99.99,,,-99.99,,2013-01-03 04:12:00,
2013-01-02 23:22:00,29.0,29.0,30.05,NNE,19,0.0,-999.0,100,-99.99,,,-99.99,,2013-01-03 04:22:00,
2013-01-02 23:32:00,28.0,28.0,30.05,NNE,19,0.0,-999.0,100,-99.99,,,-99.99,,2013-01-03 04:32:00,
2013-01-02 23:42:00,28.0,28.0,30.05,NNE,19,0.0,-999.0,100,-99.99,,,-99.99,,2013-01-03 04:42:00,
2013-01-02 23:52:00,28.0,28.0,30.05,NNE,19,0.0,-999.0,100,-99.99,,,-99.99,,2013-01-03 04:52:00,